Weather History for Jacksonville, FL

Change the Weather History Date:

Sunday, February 10, 2013

  Actual Average Record
Temperature  
Mean Temperature 59 °F 56 °F  
Max Temperature 73 °F 67 °F 84 °F (1957)
Min Temperature 44 °F 44 °F 26 °F (1979)
Degree Days  
Heating Degree Days 6 10  
Month to date heating degree days 100 105  
Since 1 July heating degree days 757 981  
Cooling Degree Days 0 1  
Month to date cooling degree days 1 5  
Year to date cooling degree days 42 16  
Growing Degree Days 8 (Base 50)    
Moisture  
Dew Point 51 °F    
Average Humidity 69    
Maximum Humidity 93    
Minimum Humidity 44    
Precipitation  
Precipitation 0.00 in 0.10 in 1.22 in (2011)
Month to date precipitation 0.02 1.07  
Year to date precipitation 1.03 4.37  
Snow  
Snow 0.00 in 0.00 in T in (1973)
Month to date snowfall 0.0 0.0  
Since 1 July snowfall 0.0 T  
Snow Depth 0.00 in    
Sea Level Pressure  
Sea Level Pressure 30.24 in    
Wind  
Wind Speed 10 mph (ESE)    
Max Wind Speed 23 mph    
Max Gust Speed 99 mph    
Visibility 10 miles    
Events      
T = Trace of Precipitation, MM = Missing Value Source: NWS Daily Summary

Daily Weather History Graph

Daily Weather History Graph

Search for Another Location

Airport:

Trip Planner

Search our weather history database for the weather conditions in past years. The results will help you decide how hot, cold, wet, or windy it might be!

Date:

Astronomy

Feb. 10, 2013 Rise Set
Actual Time 7:11 AM EST 6:11 PM EST
Civil Twilight 6:46 AM EST 6:35 PM EST
Nautical Twilight 6:18 AM EST 7:04 PM EST
Astronomical Twilight 5:49 AM EST 7:32 PM EST
Moon 7:05 AM EST (2/10) 6:53 PM EST (2/10)
Length of Visible Light 11h 49m
Length of Day
10h 59m
New Moon, 0% of the Moon is Illuminated
Feb 10
New Moon
Feb 17
First Quarter
Feb 25
Full
Mar 4
Last Quarter
Mar 11
New

Hourly Weather History & Observations

Time (EST) Temp. Windchill Dew Point Humidity Pressure Visibility Wind Dir Wind Speed Gust Speed Precip Events Conditions
12:56 AM 46.9 °F - 44.1 °F 90% 30.27 in 10.0 mi NE 5.8 mph - N/A   Clear
1:56 AM 46.0 °F 43.1 °F 44.1 °F 93% 30.27 in 10.0 mi NE 5.8 mph - N/A   Clear
2:56 AM 46.0 °F 43.9 °F 44.1 °F 93% 30.26 in 10.0 mi NE 4.6 mph - N/A   Clear
3:56 AM 46.9 °F - 44.1 °F 90% 30.25 in 10.0 mi NE 4.6 mph - N/A   Clear
4:56 AM 46.0 °F - 42.1 °F 86% 30.25 in 10.0 mi Calm Calm - N/A   Mostly Cloudy
5:56 AM 46.0 °F 44.8 °F 44.1 °F 93% 30.25 in 10.0 mi NE 3.5 mph - N/A   Mostly Cloudy
6:56 AM 46.0 °F 44.8 °F 44.1 °F 93% 30.26 in 10.0 mi NNE 3.5 mph - N/A   Mostly Cloudy
7:56 AM 50.0 °F - 48.0 °F 93% 30.29 in 10.0 mi Calm Calm - N/A   Mostly Cloudy
8:56 AM 60.1 °F - 55.0 °F 83% 30.30 in 10.0 mi Calm Calm - N/A   Mostly Cloudy
9:56 AM 68.0 °F - 51.8 °F 56% 30.30 in 10.0 mi ESE 12.7 mph 20.7 mph N/A   Scattered Clouds
10:56 AM 71.1 °F - 51.1 °F 49% 30.32 in 10.0 mi SE 15.0 mph 24.2 mph N/A   Scattered Clouds
11:56 AM 71.1 °F - 48.9 °F 45% 30.30 in 10.0 mi ESE 16.1 mph 25.3 mph N/A   Mostly Cloudy
12:56 PM 73.0 °F - 51.1 °F 46% 30.26 in 10.0 mi SE 15.0 mph - N/A   Mostly Cloudy
1:56 PM 72.0 °F - 51.1 °F 48% 30.25 in 10.0 mi ESE 17.3 mph 23.0 mph N/A   Mostly Cloudy
2:56 PM 73.0 °F - 52.0 °F 48% 30.22 in 10.0 mi ESE 12.7 mph - N/A   Mostly Cloudy
3:56 PM 72.0 °F - 53.1 °F 51% 30.21 in 10.0 mi SE 17.3 mph 24.2 mph N/A   Mostly Cloudy
4:56 PM 70.0 °F - 54.0 °F 57% 30.21 in 10.0 mi SE 17.3 mph 23.0 mph N/A   Scattered Clouds
5:56 PM 68.0 °F - 55.0 °F 63% 30.21 in 10.0 mi SE 12.7 mph - N/A   Mostly Cloudy
6:56 PM 66.0 °F - 55.9 °F 70% 30.20 in 10.0 mi SE 9.2 mph - N/A   Scattered Clouds
7:56 PM 64.9 °F - 55.9 °F 73% 30.18 in 10.0 mi SE 11.5 mph - N/A   Scattered Clouds
8:56 PM 64.9 °F - 55.9 °F 73% 30.19 in 10.0 mi SSE 10.4 mph - N/A   Scattered Clouds
9:56 PM 64.9 °F - 57.0 °F 75% 30.19 in 10.0 mi SSE 11.5 mph - N/A   Mostly Cloudy
10:56 PM 64.9 °F - 57.0 °F 75% 30.18 in 10.0 mi SSE 13.8 mph - N/A   Mostly Cloudy
11:56 PM 64.9 °F - 57.0 °F 75% 30.19 in 10.0 mi South 8.1 mph - N/A   Mostly Cloudy